This is the latest recevied weather packets stored in our database for station/object N6WDO. If no packets are shown the sender has not sent any weather packets the latest 1 day(s).
| Time | Temp. | Humidity | Pressure | Rain* | Wind** | Luminosity | Snow |
|---|---|---|---|---|---|---|---|
| 1778032145 | 13.89° C | 75% | 1016.8 hPa | 0 mm | - | 36 W/m² | - |
| 1778031842 | 13.89° C | 74% | 1016.6 hPa | 0 mm | - | 39 W/m² | - |
| 1778031538 | 13.89° C | 73% | 1016.6 hPa | 0 mm | - | 41 W/m² | - |
| 1778030932 | 13.89° C | 72% | 1016.6 hPa | 0 mm | - | 37 W/m² | - |
| 1778030629 | 13.89° C | 71% | 1016.9 hPa | 0 mm | - | 40 W/m² | - |
| 1778030023 | 14.44° C | 72% | 1016.7 hPa | 0 mm | - | 34 W/m² | - |
| 1778029720 | 14.44° C | 72% | 1016.8 hPa | 0 mm | - | 31 W/m² | - |
| 1778029115 | 14.44° C | 73% | 1016.8 hPa | 0 mm | - | 40 W/m² | - |
| 1778028812 | 14.44° C | 73% | 1016.7 hPa | 0 mm | - | 45 W/m² | - |
| 1778028206 | 15° C | 72% | 1016.7 hPa | 0 mm | - | 61 W/m² | - |
| 1778027598 | 15° C | 71% | 1016.6 hPa | 0 mm | - | 83 W/m² | - |
| 1778027295 | 15° C | 70% | 1016.6 hPa | 0 mm | - | 100 W/m² | - |
| 1778026991 | 15° C | 70% | 1016.6 hPa | 0 mm | - | 97 W/m² | - |
| 1778026081 | 15° C | 70% | 1016.7 hPa | 0 mm | - | 122 W/m² | - |
| 1778025779 | 15° C | 73% | 1016.8 hPa | 0 mm | - | 128 W/m² | - |
| 1778023962 | 14.44° C | 76% | 1016.8 hPa | 0 mm | - | 149 W/m² | - |
| 1778022752 | 14.44° C | 76% | 1016.5 hPa | 0 mm | - | 112 W/m² | - |
| 1778022146 | 15° C | 70% | 1016.7 hPa | 0 mm | - | 92 W/m² | - |
| 1778021235 | 15° C | 66% | 1016.8 hPa | 0 mm | - | 109 W/m² | - |
| 1778019718 | 15° C | 65% | 1016.7 hPa | 0 mm | - | 104 W/m² | - |
| 1778019416 | 15° C | 65% | 1016.5 hPa | 0 mm | - | 120 W/m² | - |
| 1778019112 | 14.44° C | 67% | 1016.5 hPa | 0 mm | - | 134 W/m² | - |
| 1778017297 | 14.44° C | 68% | 1016.8 hPa | 0 mm | - | 144 W/m² | - |
| 1778016995 | 14.44° C | 69% | 1016.9 hPa | 0 mm | - | 146 W/m² | - |
| 1778016691 | 14.44° C | 71% | 1016.7 hPa | 0 mm | - | 127 W/m² | - |
* Rain latest hour (hover to see other rain measurements)
** Current wind speed in m/s (hover to see current wind gust speed)